Location: Dammerstock
(48.9833°N, 8.4000°E)
Time: 10:11:56
(UTC+00:00)

Daily predictions for brighter satellites

Satellite Brightness Start Highest point End
(mag) Time Altitude Azimuth Time Altitude Azimuth Time Altitude Azimuth
SL-16 R/B 4.4 16:03:41 10° N 16:08:31 25° NW 16:13:21 10° WSW
Cosmos 1340 Rocket 3.0 16:05:47 10° N 16:09:46 49° ENE 16:13:44 10° SSE
Cosmos 1464 Rocket 4.1 16:03:48 10° S 16:10:08 72° E 16:16:31 10° NNE
SJ 16-02 2.7 16:06:00 10° NNW 16:10:12 45° WSW 16:14:22 10° S
CZ-4C R/B 3.3 16:06:43 10° NNE 16:10:39 84° WNW 16:14:21 10° SSW
ISS -3.5 16:10:03 10° WNW 16:13:25 56° N 16:16:46 10° E
Cosmos 1606 2.7 16:13:02 10° S 16:16:48 88° W 16:20:37 10° N
CZ-2D R/B 4.3 16:14:23 10° ESE 16:17:29 24° ENE 16:20:35 10° NNE
Nadezhda 4 Rocket 4.0 16:11:10 10° N 16:17:30 71° E 16:23:49 10° SSE
Lacrosse 5 rocket 2.4 16:14:18 10° NW 16:17:34 26° N 16:20:54 10° ENE
Cosmos 2360 4.4 16:14:35 10° NNW 16:20:13 53° NE 16:25:48 10° SE
CZ-4B R/B 4.0 16:16:11 10° ESE 16:20:38 27° ENE 16:25:02 10° N
ADEOS 4.4 16:15:55 10° S 16:21:04 58° WSW 16:26:14 10° NNW
Meteor 1-20 Rocket 4.4 16:16:01 10° N 16:21:46 56° ENE 16:27:30 10° SSE
CZ-2C R/B 4.0 16:19:18 10° NE 16:22:43 17° E 16:26:06 10° SE
Cosmos 1500 Rocket 3.6 16:18:34 10° N 16:22:59 57° ENE 16:27:19 10° SSE
CZ-4C R/B 3.3 16:16:53 10° NW 16:23:16 42° NNE 16:30:52 10° ESE
Cosmos 540 Rocket 4.4 16:19:41 10° SSE 16:23:57 28° E 16:28:15 10° NE
CZ-4B R/B 2.9 16:23:29 10° SSE 16:27:34 85° WSW 16:31:27 10° NNW
Cosmos 1500 4.2 16:25:21 10° NNE 16:28:28 24° ENE 16:31:34 10° SE
SMAP 3.1 16:24:41 10° SSE 16:29:16 62° ENE 16:33:53 10° N
USA 305 3.5 16:25:21 10° W 16:29:25 44° N 16:32:56 13° ENE
CZ-2C R/B 3.1 16:26:30 10° S 16:31:25 76° WSW 16:36:13 10° NNW
Cosmos 1092 Rocket 4.1 16:25:59 10° N 16:32:14 56° ENE 16:38:27 10° SSE
Cosmos 468 Rocket 4.2 16:28:31 10° S 16:33:31 54° ESE 16:38:35 10° NNE
Cosmos 1898 Rocket 3.4 16:28:42 10° NNW 16:33:59 70° ENE 16:39:11 10° SSE
Cosmos 44 4.5 16:29:56 10° NW 16:34:30 45° WSW 16:38:47 10° SSE
Cosmos 1805 Rocket 3.8 16:30:20 10° N 16:34:32 45° ENE 16:38:41 10° SSE
Sich 1 3.5 16:31:10 10° N 16:35:10 36° ENE 16:39:09 10° SE
Cosmos 1933 3.8 16:33:04 10° SSE 16:36:53 41° E 16:40:42 10° NNE
Cosmos 2360 Rocket 4.0 16:36:41 10° N 16:38:56 12° NNE 16:40:27 11° NE
Cosmos 1842 Rocket 3.8 16:35:06 10° SSW 16:39:33 76° W 16:44:04 10° N
Cosmos 2221 2.9 16:35:25 10° SSW 16:39:40 65° WNW 16:43:58 10° N
PSLV R/B 3.8 16:39:03 10° SE 16:42:36 47° ENE 16:46:12 10° N
SL-08 R/B 3.9 16:40:13 10° N 16:44:52 58° WNW 16:49:26 10° SSW
Cosmos 2084 4.1 16:46:32 10° NW 16:50:46 59° SW 16:55:09 10° SSE
deb Chang Zheng 4 4.1 16:48:28 10° SE 16:52:23 35° ENE 16:56:20 10° N
AQUARIUS 4.1 16:48:23 10° SSE 16:52:53 87° ENE 16:57:24 10° NNW
Cosmos 1627 Rocket 4.4 16:46:48 10° N 16:52:59 67° ENE 16:59:04 10° SSE
H-2A R/B 2.0 16:50:12 10° SSE 16:55:16 58° ENE 17:00:14 10° N
Cosmos 2034 Rocket 4.1 16:50:15 10° SSW 16:56:24 77° W 17:02:36 10° N
NOSS 2-2 (C) 4.2 16:52:19 10° NW 16:57:15 68° NE 17:04:10 10° SE
Cosmos 1666 3.4 16:54:55 10° N 16:58:12 28° ENE 17:01:26 10° SE
ERBS 3.7 16:55:27 10° WNW 16:58:15 27° NNW 16:59:46 19° NNE
Cosmos 2322 Rocket 3.5 16:54:50 10° N 16:58:55 20° NE 17:00:05 19° NE
USA 306 3.6 16:57:34 10° WNW 17:01:38 41° N 17:03:44 24° NE
Cosmos 1697 Rocket 2.8 16:56:54 10° NNW 17:02:32 77° WSW 17:08:08 10° SSE
Cosmos 2279 Rocket 4.4 16:56:53 10° SSE 17:02:35 40° E 17:08:17 10° NNE
USA 267 3.3 16:58:13 17° NE 17:03:31 81° NNW 17:10:04 10° WSW
Cosmos 2369 3.6 17:00:09 10° NNW 17:05:56 79° ENE 17:11:39 10° SSE
Cosmos 1980 Rocket 2.1 17:00:45 10° NNW 17:06:26 65° ENE 17:12:02 10° SE
COSMO-SKYMED 1 3.1 17:05:08 21° NE 17:07:27 35° E 17:11:27 10° SSE
MOS 1-B Rocket 4.1 17:01:57 10° NNE 17:07:41 55° E 17:14:07 10° S
Cosmos 1763 Rocket 3.5 17:03:17 10° SSW 17:08:21 78° WNW 17:13:30 10° NNE
Cosmos 1939 Rocket 4.0 17:05:06 10° S 17:09:05 48° W 17:13:04 10° NNW
SL-24 R/B - RUBIN 2 3.4 17:06:49 10° NW 17:11:26 75° NE 17:15:46 10° SE
Meteor 2-21 4.3 17:05:58 10° N 17:12:07 81° E 17:18:09 10° SSE
Cosmos 841 Rocket 3.5 17:08:47 10° S 17:13:48 56° ESE 17:17:15 20° NE
Cosmos 1937 Rocket 3.7 17:10:11 10° NNW 17:15:31 76° WSW 17:20:49 10° SSE
Cosmos 1812 3.1 17:11:56 10° SSE 17:15:33 41° E 17:16:32 34° NE
SL-16 R/B 3.0 17:11:23 10° NNW 17:16:17 29° NE 17:17:26 27° ENE
Cosmos 1125 Rocket 4.4 17:12:14 10° N 17:16:43 27° NE 17:17:07 27° ENE
Cosmos 1634 Rocket 3.9 17:11:44 10° S 17:18:02 78° E 17:24:24 10° NNE
Cosmos 1633 Rocket 3.2 17:14:15 10° N 17:18:29 47° ENE 17:22:43 10° SSE
USA 307 3.6 17:15:54 10° WNW 17:19:59 41° N 17:21:20 32° NE
YAOGAN 1 3.9 17:22:20 23° NNE 17:22:20 23° NNE 17:24:32 10° N
Cosmos 2082 Rocket 2.3 17:15:53 10° S 17:21:22 53° ESE 17:24:27 25° NE
Cosmos 2026 Rocket 4.1 17:17:47 10° NNW 17:23:57 78° W 17:30:01 10° S
Cosmos 2333 Rocket 4.0 17:21:31 10° N 17:24:11 14° NNE 17:24:11 14° NNE
ATLAS 2AS CENTAUR R/B 4.2 17:23:31 10° WNW 17:29:47 26° N 17:33:27 18° NE
Cosmos 372 Rocket 4.0 17:24:36 10° NNW 17:29:52 86° WSW 17:35:07 10° SSE
Okean O Rocket 1.5 17:25:41 10° SSE 17:30:07 69° ENE 17:34:34 10° N
Cosmos 2278 3.6 17:24:40 10° NNW 17:30:25 71° ENE 17:36:05 10° SE
ATLAS CENTAUR R/B 3.9 17:31:50 10° NW 17:34:20 15° NNW 17:36:14 12° N
Cosmos 1151 Rocket 2.9 17:32:10 10° S 17:36:26 66° E 17:38:07 35° NNE
Cosmos 1655 Rocket 4.2 17:30:15 10° N 17:36:27 49° ENE 17:42:35 10° SSE
Cosmos 1782 3.1 17:32:32 10° SSW 17:36:31 67° WNW 17:39:44 15° N
USA 234 4.3 17:32:07 10° SSE 17:38:19 45° SW 17:44:34 10° WNW
COSMOS 2406 3.3 17:33:19 10° SSW 17:39:04 76° WNW 17:43:04 21° NNE
COSMOS 2455 2.7 17:34:52 10° SSW 17:40:53 78° ESE 17:43:55 31° NE
USA 308 3.4 17:38:26 10° WNW 17:42:31 42° N 17:42:51 41° NNE
Cosmos 1666 Rocket 3.6 17:38:56 10° NNW 17:43:25 83° W 17:47:49 10° S
ARGOS 3.1 17:38:24 10° SSE 17:43:50 89° E 17:49:17 10° NNW
Cosmos 1833 Rocket 3.3 17:40:11 10° SW 17:45:42 55° NW 17:49:48 18° NNE
Cosmos 1470 Rocket 4.4 17:42:09 10° N 17:45:00 36° NNE 17:45:00 36° NNE
Cosmos 2180 Rocket 4.4 17:42:36 10° S 17:48:52 67° E 17:55:07 10° NNE
ISS -3.2 17:46:57 10° WNW 17:50:10 56° SW 17:50:10 56° SW
Meteor 2-6 Rocket 4.1 17:44:56 10° S 17:50:37 64° E 17:53:25 30° NNE
Cosmos 1328 Rocket 3.4 17:46:23 10° S 17:50:47 66° E 17:50:52 66° E
Cosmos 2219 Rocket 4.1 17:50:34 10° N 17:52:22 14° NNE 17:52:22 14° NNE
SKYMED 2 3.6 17:53:45 33° N 17:55:39 78° WNW 17:59:58 10° SSW
CZ-4 R/B 3.8 17:59:49 13° N 17:59:49 13° N 18:00:15 10° N
Lacrosse 5 rocket 1.8 17:53:22 10° NW 17:56:31 48° NNW 17:56:31 48° NNW
Landsat 5 3.4 18:00:26 72° S 18:00:26 72° S 18:04:03 10° SSW
Cosmos 2298 Rocket 3.9 17:55:00 10° NNW 18:00:17 62° ENE 18:00:27 62° ENE
NOAA 15 4.4 17:55:13 10° SSE 18:00:29 72° ENE 18:05:46 10° N
CZ-4B R/B 3.8 17:55:34 10° S 18:00:53 55° WSW 18:06:09 10° NNW
Cosmos 1570 Rocket 3.8 17:56:00 10° SSW 18:01:13 76° ESE 18:02:05 61° NE
Meteor 2-8 Rocket 4.3 17:55:52 10° S 18:02:01 79° E 18:08:04 11° NNE
ATLAS CENTAUR R/B 2.5 17:54:44 10° WSW 18:02:41 62° NW 18:03:22 54° N
CZ-2C R/B 2.7 17:59:22 16° N 18:03:36 73° WNW 18:08:45 10° SSW
SL-08 RB Rocket 3.7 17:59:01 10° SSE 18:03:40 82° WSW 18:08:19 10° NNW
GEOS 3 Rocket 3.5 18:02:08 48° SE 18:03:41 87° NE 18:08:55 10° NW
Cosmos 540 Rocket 4.4 18:00:26 10° SW 18:05:20 46° WNW 18:08:24 21° N
Meteor 1-11 Rocket 3.6 18:02:19 10° N 18:07:51 64° ENE 18:07:51 64° ENE
Cosmos 1818 3.4 18:02:46 10° NW 18:08:17 82° NE 18:09:03 66° ESE
Meteor 1-10 Rocket 4.1 18:02:57 10° S 18:08:41 66° E 18:09:02 64° ENE
Cosmos 1814 Rocket 3.9 18:03:44 10° SSW 18:08:58 84° WNW 18:10:08 55° NNE
USA 305 3.8 18:05:42 10° WNW 18:08:56 41° NNW 18:08:56 41° NNW
Cosmos 44 Rocket 3.2 18:07:05 10° NW 18:11:47 78° N 18:11:47 78° N
CZ-4C R/B 3.1 18:05:16 10° NW 18:12:26 73° SW 18:20:10 13° SSE
Cosmos 2360 Rocket 3.5 18:19:18 10° NNW 18:22:13 27° N 18:22:13 27° N
Cosmos 2208 Rocket 4.2 18:28:36 10° SSW 18:33:46 74° W 18:33:46 74° W
H-2A R/B 4.4 18:31:06 10° SW 18:35:03 22° W 18:38:57 10° NW
Cosmos 2150 Rocket 4.5 18:32:58 10° NNW 18:37:01 54° NW 18:37:01 54° NW
COSMO-SKYMED 1 4.5 18:42:21 24° NW 18:43:31 28° WNW 18:47:12 10° WSW
Cosmos 2322 Rocket 3.0 18:38:12 10° NNW 18:41:55 42° NNW 18:41:55 42° NNW
USA 267 3.7 18:45:34 46° N 18:46:11 48° N 18:52:23 10° W
Cosmos 1980 Rocket 4.4 18:45:35 10° NW 18:49:57 23° WSW 18:54:16 10° SSW
SL-16 R/B 3.0 18:55:13 10° NNW 18:59:20 46° NW 18:59:20 46° NW
Cosmos 2082 Rocket 3.6 19:00:38 10° WSW 19:05:43 33° NW 19:06:20 32° NW
Cosmos 2333 Rocket 4.3 19:04:45 10° NNW 19:06:11 18° NNW 19:06:11 18° NNW
ATLAS 2AS CENTAUR R/B 4.2 19:16:21 10° NW 19:20:53 28° N 19:20:53 28° N
COSMOS 2455 4.4 19:22:15 10° W 19:27:05 29° NW 19:27:05 29° NW
